Grand Junction, CO

9:57 AM MST on November 13, 2019 (GMT -0700)
Walker

Weather History for KGJT - September, 2019

Change the Weather History Date:

Friday, September 6, 2019

  Actual Average Record
Temperature  
Mean Temperature 84 °F 70 °F  
Max Temperature 97 °F 84 °F 97 °F (1977)
Min Temperature 70 °F 56 °F 47 °F (1961)
Degree Days  
Heating Degree Days 0 1  
Month to date heating degree days 0 2  
Since 1 July heating degree days 0 5  
Cooling Degree Days 19 6  
Month to date cooling degree days 96 38  
Year to date cooling degree days 1217 1057  
Growing Degree Days 34 (Base 50)    
Moisture  
Dew Point 47 °F    
Average Humidity 35    
Maximum Humidity 54    
Minimum Humidity 15    
Precipitation  
Precipitation 0.04 in 0.04 in 0.74 in (1939)
Month to date precipitation 0.04 0.22  
Year to date precipitation 6.90 6.07  
Snow  
Snow 0.00 in 0.00 in 0.00 in (2018)
Month to date snowfall 0.0 0.0  
Since 1 July snowfall 0.0 0.0  
Since 1 September snowfall 0.0 0.0  
Snow Depth 0.00 in    
Sea Level Pressure  
Sea Level Pressure 29.93 in    
Wind  
Wind Speed 9 mph (SE)    
Max Wind Speed 25 mph    
Max Gust Speed 40 mph    
Visibility 10 miles    
Events Rain , Thunderstorm    
T = Trace of Precipitation, MM = Missing Value Source: NWS Daily Summary

Daily Weather History Graph

Daily Weather History Graph

Search for Another Location

Airport or City:

Astronomy

Sep. 06, 2019 Rise Set
Actual Time 6:47 AM MDT 7:37 PM MDT
Civil Twilight 6:20 AM MDT 8:04 PM MDT
Nautical Twilight 5:47 AM MDT 8:36 PM MDT
Astronomical Twilight 5:14 AM MDT 9:09 PM MDT
Moon 2:55 PM MDT (9/6) No Moon Set
Length of Visible Light 13h 44m
Length of Day
12h 49m
First Quarter, 56% of the Moon is Illuminated
Sep 6
First Quarter
Sep 13
Full
Sep 21
Last Quarter
Sep 28
New
Oct 5
First Quarter

Hourly Weather History & Observations

Time (MDT) Temp. Heat Index Dew Point Humidity Pressure Visibility Wind Dir Wind Speed Gust Speed Precip Events Conditions
12:53 AM 78.1 °F - 46.0 °F 32% 29.93 in 10.0 mi East 11.5 mph - N/A   Clear
1:53 AM 77.0 °F - 45.0 °F 32% 29.94 in 10.0 mi East 10.4 mph - N/A   Clear
2:53 AM 77.0 °F - 44.1 °F 31% 29.94 in 10.0 mi ENE 15.0 mph - N/A   Clear
3:53 AM 73.9 °F - 44.1 °F 34% 29.94 in 10.0 mi East 9.2 mph - N/A   Clear
4:53 AM 71.1 °F - 45.0 °F 39% 29.95 in 10.0 mi SE 10.4 mph - N/A   Clear
5:53 AM 73.9 °F - 45.0 °F 35% 29.95 in 10.0 mi East 11.5 mph - N/A   Clear
6:53 AM 72.0 °F - 44.1 °F 37% 29.96 in 10.0 mi East 11.5 mph - N/A   Clear
7:53 AM 75.9 °F - 45.0 °F 33% 29.99 in 10.0 mi East 6.9 mph - N/A   Clear
8:53 AM 80.1 °F - 46.0 °F 30% 29.99 in 10.0 mi East 12.7 mph - N/A   Clear
9:53 AM 82.0 °F - 46.0 °F 28% 29.99 in 10.0 mi East 12.7 mph - N/A   Clear
10:53 AM 84.9 °F - 45.0 °F 25% 29.96 in 10.0 mi SE 10.4 mph - N/A   Clear
11:53 AM 87.1 °F - 46.0 °F 24% 29.94 in 10.0 mi South 5.8 mph - N/A   Clear
12:53 PM 89.1 °F - 45.0 °F 22% 29.91 in 10.0 mi Variable 5.8 mph - N/A   Clear
1:53 PM 91.9 °F - 46.0 °F 21% 29.88 in 10.0 mi WNW 6.9 mph - N/A   Clear
2:53 PM 93.9 °F - 46.0 °F 19% 29.84 in 10.0 mi NW 10.4 mph 18.4 mph N/A   Clear
3:53 PM 95.0 °F - 42.1 °F 16% 29.82 in 10.0 mi NW 13.8 mph 21.9 mph N/A   Clear
4:53 PM 97.0 °F - 41.0 °F 14% 29.79 in 10.0 mi WNW 13.8 mph 21.9 mph N/A   Clear
5:10 PM 95.0 °F - 41.0 °F 15% 30.03 in 10.0 mi WNW 15.0 mph 26.5 mph N/A Thunderstorm Clear
5:53 PM 91.0 °F - 44.1 °F 20% 29.79 in 10.0 mi SW 9.2 mph 29.9 mph N/A   Clear
6:39 PM 91.0 °F - 45.0 °F 20% 30.04 in 10.0 mi Calm Calm - N/A Thunderstorm Partly Cloudy
6:53 PM 89.1 °F - 46.9 °F 23% 29.80 in 10.0 mi South 10.4 mph - N/A Thunderstorm Mostly Cloudy
7:02 PM 89.1 °F - 48.0 °F 24% 30.06 in 10.0 mi SW 12.7 mph 19.6 mph N/A Thunderstorm Thunderstorm
7:26 PM 81.0 °F 81.0 °F 57.0 °F 44% 30.08 in 10.0 mi SSE 10.4 mph - 0.03 in Rain , Thunderstorm Light Rain
7:45 PM 80.1 °F 80.0 °F 54.0 °F 40% 30.09 in 10.0 mi Variable 5.8 mph 17.3 mph 0.04 in Rain Light Rain
7:53 PM 78.1 °F - 55.0 °F 45% 29.88 in 10.0 mi Variable 3.5 mph - 0.04 in   Mostly Cloudy
8:53 PM 75.9 °F - 57.9 °F 54% 29.90 in 10.0 mi East 3.5 mph - 0.00 in   Partly Cloudy
9:53 PM 75.0 °F - 54.0 °F 48% 29.92 in 10.0 mi NE 11.5 mph - N/A   Partly Cloudy
10:53 PM 75.0 °F - 51.1 °F 43% 29.92 in 10.0 mi South 5.8 mph - N/A   Clear
11:53 PM 73.9 °F - 51.1 °F 45% 29.90 in 10.0 mi West 10.4 mph - N/A   Clear